DateTimeUTC,F1_A11,F1_S11,BsB_S11,BsG_S11,BsR_S11,BbsB_S11,BbsG_S11,BbsR_S11,BaB_A11,BaG_A11,BaR_A11,Tu_S11,T_S11,Uu_S11,U_S11,P_S11,T1_A11
2021-10-30T03:00:00Z,00000200,21000000,,,,,,,-000.08,-000.27,-000.19,18.1,25.1,,00.0,0645.8,31.1
2021-10-30T03:01:00Z,00000200,21000000,,,,,,,-000.25,0000.38,0000.20,18.1,25.1,,00.0,0645.8,31.1
2021-10-30T03:02:00Z,00000200,21000000,,,,,,,-000.05,-000.05,0000.10,18.1,25.1,,00.0,0645.8,31.1
2021-10-30T03:03:00Z,00000200,61000000,,,,,,,0000.55,0000.44,-000.17,18.1,25.2,,00.0,0645.8,31.1
2021-10-30T03:04:00Z,00000200,41000000,0001.06,0000.42,-000.06,0000.79,0000.21,0000.19,-000.10,-000.04,0000.14,18.5,25.1,,00.0,0646.7,31.1
2021-10-30T03:05:00Z,00000200,01000000,0000.50,0000.14,-000.06,0000.15,0000.22,0000.27,0000.50,-000.08,0000.07,18.5,25.1,,00.0,0646.8,31.1
2021-10-30T03:06:00Z,00000200,01000000,0000.84,0000.14,-000.05,0000.29,0000.13,0000.32,-000.27,0000.38,0000.18,18.5,25.1,,00.0,0646.8,31.1
2021-10-30T03:07:00Z,00000200,01000000,0000.28,0000.62,0000.07,0000.35,0000.39,0000.01,0000.16,0000.27,0000.13,18.4,25.0,,00.0,0646.7,31.1
2021-10-30T03:08:00Z,00000200,01000000,0000.87,0000.49,0000.21,0000.42,0000.05,0000.48,0000.22,-000.09,-000.00,18.3,25.0,,00.0,0646.7,31.0
2021-10-30T03:09:00Z,00000200,01000000,0000.16,0000.40,0000.02,0001.14,0000.12,-000.19,0000.24,0000.29,0000.25,18.3,24.9,,00.0,0646.7,31.0
2021-10-30T03:10:00Z,00000200,01000000,0000.43,0000.48,0000.08,0000.90,-000.10,0000.19,0000.53,0000.00,-000.05,18.2,24.9,,00.0,0646.7,31.0
2021-10-30T03:11:00Z,00000200,01000000,0000.80,0000.42,0000.21,-000.04,-000.02,0000.11,-000.24,0000.23,0000.26,18.1,24.8,,00.0,0646.7,31.0
2021-10-30T03:12:00Z,00000200,01000000,0000.23,0000.28,0000.23,0000.33,0000.12,-000.07,0000.75,0000.66,0000.04,18.1,24.8,,00.0,0646.7,31.0
2021-10-30T03:13:00Z,00000200,01000000,0000.56,0000.56,0000.27,0000.11,0000.05,0000.40,0000.24,-000.10,0000.55,18.2,24.8,,00.0,0646.7,31.0
2021-10-30T03:14:00Z,00000200,01000000,0000.28,0000.53,-000.01,0000.00,0000.35,0000.21,-000.03,0000.40,0000.14,18.2,24.9,,00.0,0646.7,31.0
2021-10-30T03:15:00Z,00000200,01000000,0001.03,0000.20,0000.37,0000.06,0000.02,0000.22,0000.18,0000.08,-000.12,18.3,24.9,,00.0,0646.7,31.1
2021-10-30T03:16:00Z,00000200,01000000,0000.66,0000.24,-000.04,-000.45,0000.38,0000.11,0000.52,0000.03,0000.04,18.4,24.9,,00.0,0646.7,31.1
2021-10-30T03:17:00Z,00000200,01000000,0000.83,0000.31,-000.01,-000.11,-000.07,0000.22,-000.06,0000.21,0000.57,18.4,24.9,,00.0,0646.7,31.1
2021-10-30T03:18:00Z,00000200,01000000,0000.88,0000.50,0000.15,0000.36,0000.18,0000.05,0000.27,0000.25,0000.02,18.5,25.0,,00.0,0646.8,31.1
2021-10-30T03:19:00Z,00000200,01000000,0000.81,0000.37,-000.44,0000.15,-000.05,0000.23,0000.31,0000.33,0000.00,18.6,25.0,,00.0,0646.8,31.1
2021-10-30T03:20:00Z,00000200,01000000,0000.80,0000.43,-000.22,0000.30,-000.13,0000.00,0000.26,0000.28,0000.65,18.6,25.0,,00.0,0646.8,31.1
2021-10-30T03:21:00Z,00000200,01000000,0000.05,0000.23,-000.14,0000.29,-000.06,-000.08,0000.35,0000.21,0000.05,18.7,25.0,,00.0,0646.8,31.1
2021-10-30T03:22:00Z,00000200,01000000,0000.76,0000.52,0000.14,0000.33,0000.43,0000.04,0000.21,0000.27,0000.06,18.7,25.1,,00.0,0646.8,31.1
2021-10-30T03:23:00Z,00000200,01000000,0000.80,0000.47,-000.35,0000.32,0000.44,0000.01,0000.24,0000.45,0000.06,18.6,25.0,,00.0,0646.8,31.1
2021-10-30T03:24:00Z,00000200,01000000,0000.90,0000.42,-000.16,0000.05,-000.11,-000.04,0000.30,-000.11,0000.24,18.5,25.0,,00.0,0646.8,31.0
2021-10-30T03:25:00Z,00000200,01000000,0001.12,0000.33,0000.01,0000.08,0000.09,-000.08,-000.26,0000.01,0000.22,18.4,25.0,,00.0,0646.7,31.0
2021-10-30T03:26:00Z,00000200,01000000,0001.03,0000.39,-000.33,-000.34,0000.19,0000.26,0000.40,0000.45,-000.15,18.4,24.9,,00.0,0646.7,31.0
2021-10-30T03:27:00Z,00000200,01000000,0000.86,0000.35,-000.08,0000.29,-000.02,-000.16,0000.53,0000.01,0000.29,18.4,24.9,,00.0,0646.7,31.1
2021-10-30T03:28:00Z,00000200,01000000,0000.52,0000.25,0000.12,0000.10,0000.04,0000.34,0000.04,0000.15,0000.23,18.4,24.9,,00.0,0646.7,31.1
2021-10-30T03:29:00Z,00000200,01000000,0000.25,0000.38,-000.18,0000.00,-000.06,0000.26,0000.31,0000.55,-000.06,18.4,24.9,,00.0,0646.7,31.0
2021-10-30T03:30:00Z,00000200,01000000,-000.08,0000.10,-000.01,0000.24,0000.13,-000.06,0000.28,0000.12,0000.45,18.5,24.9,,00.0,0646.7,31.1
2021-10-30T03:31:00Z,00000200,01000000,0000.31,0000.36,-000.05,-000.09,-000.02,0000.08,0000.35,0000.01,0000.34,18.5,25.0,,00.0,0646.7,31.1
2021-10-30T03:32:00Z,00000200,01000000,0000.19,0000.48,-000.29,0000.48,0000.26,0000.23,0000.34,0000.25,-000.11,18.6,25.0,,00.0,0646.8,31.1
2021-10-30T03:33:00Z,00000200,01000000,0000.36,0000.22,-000.05,-000.09,0000.15,0000.37,-000.11,0000.43,0000.13,18.7,25.0,,00.0,0646.8,31.1
2021-10-30T03:34:00Z,00000200,01000000,0001.25,0000.09,0000.29,0000.54,0000.06,0000.40,0000.52,0000.30,0000.35,18.7,25.0,,00.0,0646.8,31.1
2021-10-30T03:35:00Z,00000200,01000000,0000.41,0000.41,0000.25,0000.86,0000.02,0000.22,0000.08,0000.11,-000.07,18.8,25.1,,00.0,0646.8,31.1
2021-10-30T03:36:00Z,00000200,01000000,0000.36,0000.61,0000.04,-000.17,0000.04,-000.14,0000.19,0000.08,0000.16,18.8,25.1,,00.0,0646.8,31.1
2021-10-30T03:37:00Z,00000200,01000000,0000.94,0000.47,0000.28,0000.63,0000.33,0000.10,-000.03,0000.41,0000.28,18.7,25.1,,00.0,0646.7,31.1
2021-10-30T03:38:00Z,00000200,01000000,0000.58,0000.29,-000.37,0000.40,-000.01,0000.31,0000.30,-000.22,0000.03,18.6,25.1,,00.0,0646.7,31.0
2021-10-30T03:39:00Z,00000200,01000000,0000.37,0000.37,-000.06,0000.24,-000.27,0000.20,0000.25,0000.33,0000.30,18.5,25.0,,00.0,0646.7,31.0
2021-10-30T03:40:00Z,00000200,01000000,0000.07,0000.24,-000.07,0000.11,0000.15,0000.16,0000.47,-000.03,0000.09,18.4,25.0,,00.0,0646.7,31.0
2021-10-30T03:41:00Z,00000200,01000000,0000.47,0000.44,0000.02,0000.71,0000.20,0000.14,-000.23,0000.04,-000.02,18.4,24.9,,00.0,0646.7,31.0
2021-10-30T03:42:00Z,00000200,01000000,0000.11,0000.53,-000.02,0000.76,0000.13,0000.17,0000.43,0000.29,0000.01,18.4,24.9,,00.0,0646.7,31.0
2021-10-30T03:43:00Z,00000200,01000000,0001.18,0000.39,0000.29,0000.13,0000.36,0000.29,0000.26,0000.46,0000.52,18.4,24.9,,00.0,0646.7,31.1
2021-10-30T03:44:00Z,00000200,01000000,0000.26,0000.33,0000.06,0000.52,0000.02,0000.16,0000.20,0000.59,-000.12,18.4,24.9,,00.0,0646.7,31.1
2021-10-30T03:45:00Z,00000200,01000000,0000.72,0000.07,-000.20,-000.04,0000.06,-000.10,0000.22,-000.29,0000.24,18.5,25.0,,00.0,0646.7,31.1
2021-10-30T03:46:00Z,00000200,01000000,0000.61,0000.13,-000.18,-000.20,0000.14,0000.01,-000.10,0000.25,0000.18,18.6,25.0,,00.0,0646.7,31.1
2021-10-30T03:47:00Z,00000200,01000000,0001.38,0000.49,0000.00,0000.62,0000.34,0000.05,0000.39,0000.36,0000.32,18.6,25.0,,00.0,0646.8,31.1
2021-10-30T03:48:00Z,00000200,01000000,0001.07,0000.71,-000.12,0000.09,-000.07,0000.10,0000.20,0000.34,-000.29,18.7,25.0,,00.0,0646.8,31.1
2021-10-30T03:49:00Z,00000200,01000000,0000.53,0000.49,-000.19,0000.24,-000.11,0000.34,0000.21,-000.09,0000.30,18.7,25.0,,00.0,0646.8,31.1
2021-10-30T03:50:00Z,00000200,01000000,0001.02,0000.51,0000.17,-000.09,-000.22,0000.23,-000.02,-000.09,0000.08,18.6,25.0,,00.0,0646.7,31.1
2021-10-30T03:51:00Z,00000200,01000000,0000.41,-000.01,-000.10,-000.01,0000.14,0000.00,0000.38,0000.47,0000.35,18.5,25.0,,00.0,0646.7,31.1
2021-10-30T03:52:00Z,00000200,01000000,0000.54,0000.57,0000.06,0000.39,0000.22,0000.08,0000.22,0000.30,-000.30,18.4,25.0,,00.0,0646.7,31.0
2021-10-30T03:53:00Z,00000200,01000000,0000.71,0000.47,0000.01,0000.30,0000.04,0000.09,-000.15,0000.00,0000.19,18.4,24.9,,00.0,0646.7,31.0
2021-10-30T03:54:00Z,00000200,01000000,0000.74,0000.75,-000.14,0000.63,0000.33,0000.01,0000.40,-000.25,0000.30,18.3,24.9,,00.0,0646.7,31.0
2021-10-30T03:55:00Z,00000200,01000000,0000.18,0000.33,-000.06,0000.62,0000.17,-000.06,0000.40,0000.44,0000.24,18.2,24.8,,00.0,0646.7,31.0
2021-10-30T03:56:00Z,00000200,01000000,0000.23,0000.33,-000.04,0000.08,0000.01,0000.19,-000.06,0000.14,-000.11,18.2,24.8,,00.0,0646.7,31.0
2021-10-30T03:57:00Z,00000200,41000000,,,,,,,0000.37,0000.16,0000.18,18.2,24.8,,00.0,0646.8,31.0
2021-10-30T03:58:00Z,00000200,61000000,,,,,,,-000.38,-000.36,-000.15,17.9,24.9,,00.0,0645.8,31.0
2021-10-30T03:59:00Z,00000200,21000000,,,,,,,0000.26,0000.50,0000.13,17.9,25.0,,00.0,0645.8,31.0
